Flag Weather past 2 weeks in Częstochowa, Poland

Now
25 °F

Partly sunny.


Feels Like: 13 °F
Forecast: 26 / 31 °F
Wind: 13 mph from East

Location: Katowice Airport

Current Time: Nov 29, 2014 at 11:27:17 AM

Latest Report: Nov 29, 2014 at 11:00 AM


Visibility: N/A

Pressure: 30.24 "Hg

Humidity: 86%

Dew point: 21 °F

Location of CzęstochowaLocation

Historic Weather in Częstochowa — Graph

°F

Częstochowa temperature yesterday

Maximum temperature yesterday: 32 °F (at 12:00 AM)
Minimum temperature yesterday: 27 °F (at 11:00 PM)
Average temperature yesterday: 30 °F

Past Weeks' High & Low Weather Summary

 TemperatureHumidityPressure
High48 °F (Nov 14, 11:00 AM)100% (Nov 15, 1:00 AM)30.42 "Hg (Nov 15, 1:00 AM)
Low25 °F (Nov 29, 1:00 AM)66% (Nov 24, 1:00 PM)29.74 "Hg (Nov 16, 11:00 AM)
Average38 °F93%30.12 "Hg
* Reported Nov 14 10:00 AM — Nov 29 10:00 AM, Częstochowa, Weather by CustomWeather, © 2014

Note: Actual official high and low records may vary slightly from our data, if they occured in-between our weather recording intervals... More about our weather records

Advertising

Częstochowa weather history for previous 24 hours

 ConditionsComfort  
Time TempWeatherWind HumidityBarometerVisibility
10:00 AM
Nov 29
25 °FPartly sunny.13 mph86%30.24 "HgN/A
9:30 AM25 °FPartly sunny.16 mph86%30.24 "HgN/A
9:00 AM25 °FPartly sunny.16 mph86%30.24 "HgN/A
8:30 AM25 °FPartly sunny.13 mph86%30.24 "HgN/A
8:00 AM25 °FPartly sunny.13 mph86%30.24 "HgN/A
7:30 AM25 °FPartly sunny.16 mph86%30.21 "HgN/A
7:00 AM25 °FPassing clouds.13 mph86%30.24 "HgN/A
6:30 AM25 °FPassing clouds.15 mph86%30.21 "HgN/A
6:00 AM25 °FPassing clouds.15 mph86%30.21 "HgN/A
5:30 AM25 °FPassing clouds.15 mph86%30.21 "HgN/A
5:00 AM25 °FPassing clouds.14 mph86%30.21 "HgN/A
4:30 AM25 °FPassing clouds.16 mph86%30.21 "HgN/A
4:00 AM25 °FPassing clouds.16 mph86%30.21 "HgN/A
3:30 AM25 °FPassing clouds.14 mph86%30.21 "HgN/A
3:00 AM25 °FPassing clouds.13 mph86%30.21 "HgN/A
2:30 AM25 °FPassing clouds.13 mph93%30.21 "HgN/A
2:00 AM25 °FPassing clouds.10 mph86%30.21 "HgN/A
1:30 AM25 °FClear.13 mph86%30.21 "Hg10 mi
1:00 AM25 °FClear.12 mph93%30.21 "Hg10 mi
12:30 AM27 °FPassing clouds.10 mph86%30.21 "Hg5 mi
12:00 AM27 °FPassing clouds.6 mph86%30.21 "Hg5 mi
11:30 PM
Nov 28
27 °FPassing clouds.8 mph86%30.21 "Hg5 mi
11:00 PM27 °FPassing clouds.12 mph93%30.21 "Hg4 mi
10:30 PM28 °FPassing clouds.13 mph86%30.21 "Hg4 mi
10:00 PM28 °FPassing clouds.12 mph86%30.21 "Hg4 mi
9:30 PM28 °FPassing clouds.9 mph86%30.21 "Hg4 mi
9:00 PM28 °FPassing clouds.10 mph86%30.18 "Hg4 mi
8:30 PM28 °FPassing clouds.10 mph93%30.18 "Hg4 mi
8:00 PM28 °FPassing clouds.12 mph93%30.18 "Hg4 mi
7:30 PM28 °FPassing clouds.10 mph93%30.18 "Hg4 mi
7:00 PM30 °FPassing clouds.12 mph86%30.18 "Hg4 mi
6:30 PM30 °FPassing clouds.12 mph86%30.18 "Hg4 mi
6:00 PM30 °FPassing clouds.10 mph86%30.15 "Hg4 mi
5:30 PM30 °FPassing clouds.13 mph86%30.15 "Hg4 mi
5:00 PM30 °FPassing clouds.13 mph86%30.15 "Hg4 mi
4:30 PM28 °FPassing clouds.13 mph93%30.15 "Hg4 mi
4:00 PM30 °FPassing clouds.14 mph86%30.15 "Hg4 mi
3:30 PM30 °FPartly sunny.12 mph86%30.12 "Hg4 mi
3:00 PM30 °FPartly sunny.10 mph86%30.12 "Hg4 mi
2:30 PM30 °FPartly sunny.9 mph86%30.12 "Hg5 mi
2:00 PM30 °FPartly sunny.12 mph86%30.12 "Hg6 mi
1:30 PM30 °FPartly sunny.12 mph86%30.12 "HgN/A
1:00 PM30 °FPartly sunny.9 mph86%30.12 "HgN/A
12:30 PM30 °FPartly sunny.9 mph86%30.12 "HgN/A
12:00 PM30 °FPartly sunny.9 mph86%30.12 "HgN/A
11:30 AM30 °FPartly sunny.9 mph86%30.12 "HgN/A
11:00 AM30 °FPartly sunny.9 mph86%30.12 "HgN/A
Weather by CustomWeather, © 2014

See weather overviewHow to use our weather pages